Regional Weather Roundup
Issued by NWS

Home | Current Version | Previous Version | Text Only | Print | Product List | Glossary Off
Versions: 1 2 3 4 5 6 7 8 9 10 11 12 13 14 15 16 17 18 19 20 21 22 23 24 25 26 27

000
ASUS45 KSLC 011910
RWRUT

UTAH REGIONAL WEATHER ROUNDUP
NATIONAL WEATHER SERVICE SALT LAKE CITY UT
100 PM MDT SUN MAY 01 2016

UTZ001>011-023>025-012000-

NORTHERN UTAH

CITY           SKY/WX    TMP DP  RH WIND       PRES   REMARKS
BRIGHAM CITY   PTSUNNY   54  20  26 E35G55    30.08F
HILL AFB       MOSUNNY   53  26  35 E20G47    30.07S
LOGAN          PTSUNNY   54  23  30 E21G43    30.15F
OGDEN          PTSUNNY   54  23  30 E15G29    30.08F
PROVO AIRPORT  PTSUNNY   57  28  33 W12       30.04F
SALT LAKE CITY PTSUNNY   61  23  23 NE18G25   30.05F
VERNAL         SUNNY     52  23  32 E20G26    30.12F
WENDOVER       MOSUNNY   55  30  38 N14G20    30.09F
HEBER CITY     MOSUNNY   54  25  32 SE7       30.05F

$$

UTZ012>022-026-027-012000-

SOUTHERN/CENTRAL UTAH

CITY           SKY/WX    TMP DP  RH WIND       PRES   REMARKS
BLANDING       CLOUDY    45  39  81 E7        30.12S
BRYCE CANYON   CLOUDY    44  30  57 S13G20    30.04R
CEDAR CITY     PTSUNNY   54  35  48 NW8       29.99F
DELTA          CLOUDY    57  27  30 N3        30.01F
HANKSVILLE     CLOUDY    57  27  30 E8        30.06F
MILFORD        SUNNY     57  30  35 NW12G18   30.00S
MOAB/CYNLANDS  PTSUNNY   56  28  34 SE10G17   30.01F
PRICE          MOSUNNY   51  23  33 NE12G20   30.07F
ST GEORGE      PTCLDY    64  39  39 N3        29.96F

$$

REGIONAL REPORTS     COLORADO/ARIZONA

CITY           SKY/WX    TMP DP  RH WIND       PRES   REMARKS
CRAIG, CO      CLOUDY    52  25  35 E17G24    30.09
GRAND JUNCTION CLOUDY    54  29  38 S6        30.03F
RIFLE          SUNNY     59  24  26 NE10      30.02F
MONTROSE       CLOUDY    54  25  32 E15G25    30.05F
CORTEZ         CLOUDY    46  37  71 SE18G26   30.04F
PAGE, AZ       LGT RAIN  49  39  68 E9        30.04R
GRAND CANYON   PTSUNNY   46  34  62 NE10      30.03S
KINGMAN        CLOUDY    63  40  42 N9        29.94F
FLAGSTAFF      CLOUDY    38  37  97 S6        30.01S WCI  33

$$

REGIONAL REPORTS    NEVADA/IDAHO/WYOMING

CITY           SKY/WX    TMP DP  RH WIND       PRES   REMARKS
LAS VEGAS, NV  MOSUNNY   71  39  31 E10       29.88F
ELY            MOSUNNY   48  32  53 N13G21    30.06S
ELKO           SUNNY     57  31  37 NE13G25   30.06F
POCATELLO, ID  MOSUNNY   59  30  33 E10       30.15F
BURLEY         MOSUNNY   58  31  35 E14G21    30.12F
EVANSTON, WY   CLOUDY    40  22  48 E32G38    30.18F WCI  28
ROCK SPRINGS   CLOUDY    42  24  49 NE32G43   30.21F
KEMMERER       CLOUDY    39  23  52 E29G43    30.22F WCI  28

$$




USA.gov is the U.S. government's official web portal to all federal, state and local government web resources and services.